[[{"header":{"parameterUnit":"m.s-1","parameterCategory":1,"la1":30.2992,"la2":30.254,"lo1":-89.0895,"lo2":-89.0443,"dy":0.0025,"dx":0.0025,"nx":19,"ny":19,"refTime":"2026-04-06T21:00:00:Z","depth":0,"parameterNumber":2,"parameterNumberName":"U-component_of_WINDS"},"data":[0,0,0,-9.0938,-9.0941,-9.1093,-9.1093,-9.1328,-9.1331,0,0,0,0,0,0,0,0,0,0,0,-9.0918,-9.0921,-9.0937,-9.0942,-9.1093,-9.1093,-9.1328,-9.1331,0,0,0,0,0,0,0,0,0,0,0,-9.0917,-9.092,-9.0923,-9.0942,-9.1093,-9.1093,-9.1327,-9.1198,0,0,0,0,0,0,0,0,0,0,-9.1044,-9.1051,-9.0919,-9.0923,-9.0943,-9.1092,-9.1093,-9.1191,-9.1206,-9.1278,0,-9.1348,0,-9.1344,-9.1349,-9.135,0,0,0,-9.0923,-9.1039,-9.1057,-9.0924,-9.0945,-9.1092,-9.1019,-9.1199,-9.1216,-9.1298,-9.1351,-9.1359,-9.1348,-9.1351,-9.1352,-9.183,-9.1833,0,0,-9.0914,-9.0959,-9.1045,-9.1069,-9.1049,-9.1014,-9.1024,-9.1209,-9.127,-9.1352,-9.1363,-9.1351,-9.1353,-9.1355,-9.1827,-9.1831,0,0,0,-9.0903,-9.0954,-9.0966,-9.1061,-9.1085,-9.1019,-9.103,-9.1261,-9.1262,-9.1366,-9.1354,-9.1354,-9.1358,-9.1824,-9.1829,-9.2028,0,0,0,-9.0897,-9.0947,-9.0964,-9.0993,-9.1082,-9.1175,-9.108,-9.1249,-9.1268,-9.1353,-9.1354,-9.136,-9.182,-9.1826,-9.2015,-9.2114,0,0,0,-9.09,-9.0947,-9.0978,-9.0995,-9.1061,-9.1171,-9.1181,-9.1252,-9.1263,-9.135,-9.1361,-9.1818,-9.1825,-9.2003,-9.2095,-9.2253,0,0,0,-9.0915,-9.1152,-9.0982,-9.1242,-9.1061,-9.1293,-9.1179,-9.135,-9.1449,-9.1356,-9.1821,-9.1828,-9.1999,-9.2083,-9.2241,-9.2395,-9.2463,0,0,-9.1239,-9.1192,-9.1342,-9.1194,-9.1469,-9.1266,-9.157,-9.1618,-9.1585,-9.175,-9.1761,-9.2019,-9.2093,-9.2251,-9.283,-9.2885,0,0,0,-9.146,-9.1568,-9.1631,-9.1728,-9.1771,-9.1816,-9.1813,-9.1831,-9.197,-9.1679,-9.2117,-9.2161,-9.2251,-9.2322,-9.2369,-9.2444,-9.1863,-9.1862,-9.1862,-9.1982,-9.1928,-9.2172,-9.2138,-9.2233,-9.2229,-9.2301,-9.2324,-9.2241,-9.2346,-9.2394,-9.2753,-9.2838,-9.2873,-9.2952,-9.2471,-9.2472,-9.2473,-9.2473,-9.2451,-9.2596,-9.2482,-9.2677,-9.262,-9.2783,-9.2789,-9.2725,-9.2869,-9.2711,-9.2788,-9.262,-9.2934,-9.3,-9.2488,-9.2485,-9.2483,-9.2482,-9.2481,-9.2787,-9.2847,-9.2866,-9.3002,-9.3113,-9.3069,-9.3214,-9.3155,-9.3101,-9.3177,-9.3223,-9.3219,-9.3209,-9.3203,-9.3205,-9.3206,-9.3207,-9.3208,-9.3208,-9.3128,-9.3142,-9.3271,-9.3339,-9.3394,-9.346,-9.346,-9.3512,-9.3556,-9.3502,-9.3502,-9.341,-9.2975,-9.2867,-9.3228,-9.3224,-9.3222,-9.322,-9.3219,-9.3623,-9.3502,-9.3702,-9.3758,-9.3833,-9.3948,-9.3872,-9.3986,-9.4021,-9.4095,-9.3986,-9.3674,-9.3622,-9.3585,-9.3495,-9.3996,-9.3996,-9.3996,-9.3996,-9.3907,-9.3875,-9.4066,-9.416,-9.4245,-9.4198,-9.4426,-9.4429,-9.4412,-9.4431,-9.435,-9.4227,-9.4191,-9.416,-9.411,-9.4026,-9.465,-9.4651,-9.4652,-9.4208,-9.4183,-9.4388,-9.4371,-9.4426,-9.4475,-9.4688,-9.48,-9.4756,-9.4677,-9.4445,-9.4417,-9.4217,-9.4154,-9.4069,-9.3992,-9.3836,0,0]},{"header":{"parameterUnit":"m.s-1","parameterCategory":1,"la1":30.2992,"la2":30.254,"lo1":-89.0895,"lo2":-89.0443,"dy":0.0025,"dx":0.0025,"nx":19,"ny":19,"refTime":"2026-04-06T21:00:00:Z","depth":0,"parameterNumber":3,"parameterNumberName":"V-component_of_WINDS"},"data":[0,0,0,0.5121,0.512,0.5092,0.5092,0.5042,0.5042,0,0,0,0,0,0,0,0,0,0,0,0.5123,0.5122,0.5121,0.512,0.5092,0.5092,0.5043,0.5042,0,0,0,0,0,0,0,0,0,0,0,0.5123,0.5122,0.5121,0.512,0.5092,0.5092,0.5043,0.5068,0,0,0,0,0,0,0,0,0,0,0.5098,0.5093,0.5122,0.5121,0.512,0.5092,0.5092,0.507,0.5067,0.505,0,0.5034,0,0.5037,0.5038,0.5038,0,0,0,0.5125,0.5095,0.5094,0.5121,0.512,0.5092,0.5106,0.5068,0.5065,0.5046,0.5033,0.5032,0.5036,0.5037,0.5037,0.4927,0.4927,0,0,0.5127,0.5113,0.5097,0.5092,0.5097,0.5107,0.5105,0.5066,0.5051,0.5033,0.5031,0.5036,0.5037,0.5037,0.4928,0.4927,0,0,0,0.5128,0.5114,0.5114,0.5093,0.5089,0.5106,0.5104,0.5053,0.5055,0.503,0.5035,0.5037,0.5036,0.4929,0.4928,0.4878,0,0,0,0.5129,0.5115,0.5115,0.5106,0.509,0.5071,0.5091,0.5057,0.5053,0.5035,0.5037,0.5035,0.493,0.4928,0.4881,0.4856,0,0,0,0.5127,0.5115,0.5108,0.5105,0.5093,0.5072,0.5071,0.5057,0.5056,0.5038,0.5035,0.493,0.4928,0.4884,0.4861,0.4823,0,0,0,0.512,0.5063,0.5107,0.5046,0.5093,0.5043,0.5072,0.5034,0.5013,0.5036,0.493,0.4928,0.4885,0.4864,0.4826,0.4788,0.4772,0,0,0.5041,0.5053,0.5019,0.5057,0.4996,0.5048,0.4979,0.4971,0.4981,0.4944,0.4942,0.488,0.4861,0.4824,0.4686,0.4672,0,0,0,0.4989,0.4964,0.4951,0.4931,0.4925,0.4918,0.4923,0.4921,0.4891,0.496,0.4858,0.4847,0.4825,0.4808,0.4796,0.4779,0.492,0.492,0.492,0.4856,0.4874,0.4818,0.4833,0.4813,0.4821,0.4806,0.4804,0.4826,0.4802,0.479,0.4704,0.4683,0.4675,0.4656,0.4773,0.4773,0.4772,0.4772,0.4741,0.4708,0.4742,0.47,0.4719,0.4683,0.4689,0.4706,0.4675,0.4714,0.4696,0.4735,0.466,0.4644,0.4769,0.4769,0.477,0.477,0.477,0.4655,0.4642,0.4642,0.4617,0.4595,0.4612,0.4582,0.46,0.4617,0.46,0.4589,0.459,0.4592,0.4594,0.4594,0.4593,0.4593,0.4593,0.4593,0.4564,0.4566,0.4539,0.453,0.4521,0.4511,0.4519,0.451,0.4505,0.452,0.452,0.4544,0.465,0.4675,0.4588,0.4589,0.4589,0.459,0.459,0.4439,0.4471,0.4428,0.4419,0.4412,0.4389,0.4415,0.4395,0.439,0.4374,0.4404,0.4479,0.4492,0.4501,0.4522,0.4401,0.4401,0.4401,0.4401,0.4365,0.4375,0.4336,0.4321,0.4308,0.4327,0.4278,0.4285,0.4296,0.4294,0.4315,0.4345,0.4354,0.4362,0.4374,0.4394,0.4242,0.4242,0.4242,0.4288,0.4298,0.4253,0.4267,0.4263,0.4259,0.4213,0.4193,0.4213,0.4236,0.4293,0.43,0.4348,0.4364,0.4385,0.4404,0.444,0,0]}]]